Weather History for Tulsa Jones, OK

Change the Weather History Date:

Monday, October 28, 2013

  Actual Average (KTUL) Record (KTUL)
Temperature  
Mean Temperature 58 °F 58 °F  
Max Temperature 72 °F 69 °F 86 °F (1922)
Min Temperature 46 °F 47 °F 23 °F (1925)
Degree Days  
Heating Degree Days 6 8  
Month to date heating degree days 137  
Since 1 July heating degree days 161  
Cooling Degree Days 0 1  
Month to date cooling degree days 59  
Year to date cooling degree days 2024  
Growing Degree Days 8 (Base 50)    
Moisture  
Dew Point 55 °F    
Average Humidity 78    
Maximum Humidity 97    
Minimum Humidity 57    
Precipitation  
Precipitation 0.00 in 0.13 in 2.45 in (1974)
Month to date precipitation 3.56  
Year to date precipitation 35.30  
Sea Level Pressure  
Sea Level Pressure 30.09 in    
Wind  
Wind Speed 5 mph (SSE)    
Max Wind Speed 12 mph    
Max Gust Speed 17 mph    
Visibility 9 miles    
Events      
T = Trace of Precipitation, MM = Missing Value Source: NWS Daily Summary

Daily Weather History Graph

Daily Weather History Graph

Search for Another Location

Airport:

Trip Planner

Search our weather history database for the weather conditions in past years. The results will help you decide how hot, cold, wet, or windy it might be!

Date:

Astronomy

Oct. 28, 2013 Rise Set
Actual Time 7:42 AM CDT 6:31 PM CDT
Civil Twilight 7:16 AM CDT 6:58 PM CDT
Nautical Twilight 6:46 AM CDT 7:28 PM CDT
Astronomical Twilight 6:16 AM CDT 7:58 PM CDT
Moon 1:47 AM CDT (10/28) 3:04 PM CDT (10/28)
Length of Visible Light 11h 41m
Length of Day
10h 49m
Waning Crescent, 34% of the Moon is Illuminated
Oct 28
Waning Crescent
Nov 3
New
Nov 9
First Quarter
Nov 17
Full
Nov 25
Last Quarter

Hourly Weather History & Observations

Time (CDT) Temp. Dew Point Humidity Pressure Visibility Wind Dir Wind Speed Gust Speed Precip Events Conditions
12:49 AM 46.4 °F 44.6 °F 93% 30.02 in 7.0 mi Calm Calm - N/A   Scattered Clouds
12:53 AM 46.9 °F 44.1 °F 90% 30.05 in 6.0 mi Calm Calm - N/A   Mostly Cloudy
1:09 AM 53.6 °F 51.8 °F 94% 30.02 in 8.0 mi South 4.6 mph - N/A   Overcast
1:53 AM 55.9 °F 55.0 °F 97% 30.05 in 5.0 mi SSW 9.2 mph - N/A   Overcast
2:31 AM 57.2 °F 55.4 °F 94% 30.04 in 6.0 mi SSW 5.8 mph - N/A   Overcast
2:53 AM 57.0 °F 55.0 °F 93% 30.06 in 8.0 mi SSW 5.8 mph - N/A   Overcast
3:53 AM 57.9 °F 55.0 °F 90% 30.06 in 9.0 mi SSW 4.6 mph - N/A   Overcast
4:53 AM 57.9 °F 55.0 °F 90% 30.07 in 10.0 mi SSW 5.8 mph - N/A   Overcast
5:53 AM 57.9 °F 55.0 °F 90% 30.08 in 10.0 mi South 4.6 mph - N/A   Overcast
6:53 AM 57.9 °F 55.0 °F 90% 30.10 in 10.0 mi South 5.8 mph - N/A   Overcast
7:53 AM 57.9 °F 55.0 °F 90% 30.10 in 9.0 mi SSE 4.6 mph - N/A   Overcast
8:53 AM 57.9 °F 55.0 °F 90% 30.14 in 7.0 mi SSE 6.9 mph - N/A   Overcast
9:53 AM 57.9 °F 55.0 °F 90% 30.16 in 8.0 mi South 8.1 mph - N/A   Overcast
10:53 AM 59.0 °F 55.0 °F 87% 30.15 in 10.0 mi South 6.9 mph - N/A   Overcast
11:27 AM 60.8 °F 55.4 °F 82% 30.14 in 10.0 mi SSE 8.1 mph - N/A   Overcast
11:53 AM 63.0 °F 55.9 °F 78% 30.16 in 10.0 mi SSE 6.9 mph - N/A   Overcast
12:06 PM 62.6 °F 55.4 °F 77% 30.14 in 10.0 mi SSE 6.9 mph - N/A   Mostly Cloudy
12:44 PM 66.2 °F 55.4 °F 68% 30.12 in 10.0 mi South 9.2 mph 17.3 mph N/A   Partly Cloudy
12:53 PM 66.9 °F 55.0 °F 66% 30.14 in 10.0 mi SSE 8.1 mph - N/A   Partly Cloudy
1:25 PM 69.8 °F 55.4 °F 60% 30.10 in 10.0 mi Variable 5.8 mph - N/A   Mostly Cloudy
1:43 PM 69.8 °F 55.4 °F 60% 30.09 in 10.0 mi South 9.2 mph - N/A   Scattered Clouds
1:53 PM 70.0 °F 55.0 °F 59% 30.11 in 10.0 mi SSE 8.1 mph - N/A   Scattered Clouds
2:53 PM 71.1 °F 55.0 °F 57% 30.09 in 10.0 mi SSE 9.2 mph - N/A   Scattered Clouds
3:53 PM 71.1 °F 55.0 °F 57% 30.07 in 10.0 mi SE 11.5 mph 16.1 mph N/A   Overcast
4:53 PM 71.1 °F 55.9 °F 59% 30.07 in 10.0 mi SSE 9.2 mph - N/A   Overcast
5:53 PM 69.1 °F 55.9 °F 63% 30.06 in 10.0 mi SE 11.5 mph - N/A   Overcast
6:53 PM 68.0 °F 55.9 °F 65% 30.07 in 10.0 mi SE 8.1 mph - N/A   Overcast
7:53 PM 66.9 °F 55.9 °F 68% 30.09 in 10.0 mi SE 6.9 mph - N/A   Overcast
8:07 PM 66.2 °F 55.4 °F 68% 30.07 in 10.0 mi SE 6.9 mph - N/A   Overcast
8:53 PM 66.9 °F 55.9 °F 68% 30.10 in 10.0 mi SE 8.1 mph - N/A   Overcast
9:44 PM 66.2 °F 57.2 °F 73% 30.09 in 10.0 mi SSE 6.9 mph - N/A   Overcast
9:53 PM 66.9 °F 57.0 °F 70% 30.11 in 10.0 mi SE 6.9 mph - N/A   Overcast
10:53 PM 64.9 °F 57.9 °F 78% 30.11 in 10.0 mi SSE 8.1 mph - 0.00 in   Overcast
11:53 PM 64.0 °F 59.0 °F 84% 30.10 in 10.0 mi SSE 8.1 mph - 0.00 in   Overcast